Location: Unspecified
(0.0000°N, 0.0000°E)
Time: 23:57:01
(UTC+00:00)

ATLAS 5 CENTAUR DEB - Pass Details

Date: 25 February 2026
Orbit: 8295 x 34941 km, 19.8° (Epoch: 28 February)

Event Time Altitude Azimuth Distance (km) Brightness Sun altitude
Rises 14:05:56 0° 284° (WNW) 13,224 ? 60.4°
Reaches altitude 10° 14:13:41 10° 282° (WNW) 12,335 ? 58.6°
Enters shadow 23:39:19 81° 102° (ESE) 27,790 ? -77.6°
Exits shadow 00:19:20 79° 73° (ENE) 24,318 ? -80.7°
Drops below altitude 10° 02:23:23 10° 66° (ENE) 14,242 ? -56.3°
Sets 02:32:14 0° 68° (ENE) 14,484 ? -54.2°
